• Join FlightAware (Why Join?)
  • Login
  • US Flag 
06:07AM EST


 

Airport Tracker/Info


-or-


 

Live Flight TrackerFlight Track Log ✈ SKW6330 ✈ 23-Jul-2013 ✈ KFAT - KLAX

Flight Track Log - Related Links

Times and Time Zones

All times are in EDT time to prevent confusion due to time zone crossing. See the SKW6330 flight status page for this flight to view local times or setup timezone preferences in your user account.

Time Position Orientation Groundspeed Altitude Reporting Facility
EDT Latitude Longitude Course Direction KTS MPH feet Rate Location/Type
12:21AM 36.7939 -119.7556 257° West 131 151 1,900  Level Los Angeles Center
12:22AM 36.7864 -119.7956 257° West 184 212 3,100 1,560 Climbing Oakland Center
12:23AM 36.7436 -119.7753 159° South 208 239 4,500 1,770 Climbing Oakland Center
12:24AM 36.6981 -119.7197 136° Southeast 187 215 6,700 1,721 Climbing Oakland Center
12:25AM 36.6469 -119.6903 155° Southeast 199 229 8,000 1,279 Climbing Oakland Center
12:26AM 36.5922 -119.6636 159° South 209 241 9,300 1,279 Climbing Oakland Center
12:27AM 36.5375 -119.6347 157° South 212 244 10,600 1,230 Climbing Oakland Center
12:28AM 36.4836 -119.6058 157° South 212 244 11,800 1,131 Climbing Oakland Center
12:29AM 36.4294 -119.5772 157° South 211 243 12,900 1,180 Climbing Oakland Center
12:30AM 36.3767 -119.5489 157° South 207 238 14,200 1,230 Climbing Oakland Center
12:31AM 36.3239 -119.5211 157° South 206 237 15,400 1,140 Climbing Oakland Center
12:32AM 36.2700 -119.4939 158° South 209 241 16,500 992 Climbing Oakland Center
12:33AM 36.2156 -119.4658 157° South 212 244 17,400 934 Climbing Oakland Center
12:34AM 36.1589 -119.4389 159° South 217 250 18,400 787 Climbing Oakland Center
12:35AM 36.1011 -119.4081 157° South 219 252 19,000 590 Climbing Oakland Center
12:36AM 36.0461 -119.3836 160° South 215 247 19,600 639 Climbing Oakland Center
12:37AM 35.9772 -119.3469 157° South 219 252 20,300 590 Climbing Oakland Center
12:38AM 35.9203 -119.3106 153° Southeast 224 258 20,800 293 Climbing Oakland Center
12:39AM 35.8597 -119.2756 155° Southeast 233 268 20,900 49 Climbing Oakland Center
12:40AM 35.7953 -119.2367 154° Southeast 246 283 20,900  Level Oakland Center
12:41AM 35.7311 -119.1972 153° Southeast 254 292 20,900  Level Oakland Center
12:42AM 35.6644 -119.1581 154° Southeast 261 300 20,900  Level Oakland Center
12:43AM 35.5997 -119.1192 154° Southeast 260 299 20,900  Level Oakland Center
12:44AM 35.5342 -119.0797 154° Southeast 261 300 20,900  Level Oakland Center
12:45AM 35.4556 -119.0311 153° Southeast 263 303 20,900  Level Los Angeles Center
12:46AM 35.3889 -118.9931 155° Southeast 264 304 20,900  Level Los Angeles Center
12:47AM 35.3236 -118.9525 153° Southeast 263 303 20,900  Level Los Angeles Center
12:48AM 35.2575 -118.9136 154° Southeast 263 303 20,900  Level Los Angeles Center
12:49AM 35.2044 -118.8833 155° Southeast 262 302 20,900  Level Los Angeles Center
12:50AM 35.1233 -118.8358 154° Southeast 267 307 20,900 -244 Level Los Angeles Center
12:51AM 35.0586 -118.7975 154° Southeast 261 300 20,400 -1,122 Descending Los Angeles Center
12:52AM 34.9794 -118.7522 155° Southeast 261 300 18,600 -1,707 Descending Los Angeles Center
12:53AM 34.9158 -118.7144 154° Southeast 255 293 16,900 -1,610 Descending Los Angeles Center
12:54AM 34.8547 -118.6778 154° Southeast 257 296 15,300 -1,561 Descending Los Angeles Center
12:55AM 34.7936 -118.6433 155° Southeast 244 281 13,700 -1,659 Descending Los Angeles Center
12:56AM 34.7322 -118.6078 155° Southeast 246 283 11,900 -1,317 Descending Los Angeles Center
12:57AM 34.6689 -118.5675 152° Southeast 258 297 11,000 -488 Descending Los Angeles Center
12:58AM 34.5928 -118.5250 155° Southeast 250 288 10,900 -439 Descending Los Angeles Center
12:59AM 34.5286 -118.4844 152° Southeast 260 299 10,100 -885 Descending Los Angeles Center
01:00AM 34.4656 -118.4506 156° South 246 283 9,100 -1,024 Descending Los Angeles Center
01:01AM 34.4078 -118.4167 154° Southeast 231 266 8,000 -976 Descending Los Angeles Center
01:02AM 34.3514 -118.3844 155° Southeast 224 258 7,100 -585 Descending Los Angeles Center
01:03AM 34.2931 -118.3506 154° Southeast 229 264 6,800 -537 Descending Los Angeles Center
01:04AM 34.2317 -118.3156 155° Southeast 238 274 6,000 -390 Descending Los Angeles Center
01:06AM 34.1686 -118.2758 152° Southeast 250 288 6,000 -390 Level Los Angeles Center
01:07AM 34.1058 -118.2361 152° Southeast 253 291 5,200 -683 Descending Los Angeles Center
01:08AM 34.0567 -118.1772 135° Southeast 228 262 4,600 -1,024 Descending Los Angeles Center
01:09AM 34.0256 -118.1250 126° Southeast 204 235 3,100 -1,122 Descending Los Angeles Center
01:10AM 33.9825 -118.1525 208° Southwest 203 234 2,300 -439 Descending Los Angeles Center
01:11AM 33.9719 -118.2097 257° West 182 209 2,200  Descending Los Angeles Center
01:12AM 33.9681 -118.2575 264° West 181 208 2,300 -341 Climbing Los Angeles Center
01:13AM 33.9617 -118.3167 263° West 161 185 1,500 -677 Descending Los Angeles Center
01:14AM 33.9578 -118.3581 264° West 136 157 900 -683 Descending Los Angeles Center
01:15AM 33.9525 -118.4058 262° West 126 145 100 -787 Descending Los Angeles Center
01:17AM 33.9425 -118.4081 260° West  Level Estimated
01:24AM 33.9425 -118.4081 260° West  Level Estimated